QPF
0.00 0.00 0.00 0.00 0.00 0.00 0.00 0.00 0.00 0.00 0.00 0.00 0.00 0.00 0.00 0.00 0.00 0.00 0.00 0.00 0.00 0.00 0.00 0.00 0.00 0.00 0.00 0.00 0.00 0.00 0.00 0.00 0.00 0.00 0.00 0.00 0.00 0.00 0.00 0.00 0.00 0.00 0.00
0.00 0.00 0.00 0.00 0.00 0.00 0.00 0.00 0.00 0.00 0.00 0.00 0.00 0.00 0.00 0.00 0.00 0.00 0.00 0.00 0.00 0.00 0.00 0.00 0.00 0.00 0.00 0.00 0.00 0.00 0.00 0.00 0.00 0.00 0.00 0.00 0.00 0.00 0.00 0.00 0.00 0.00 0.00
0.00 0.00 0.00 0.00 0.00 0.00 0.00 0.00 0.00 0.00 0.00 0.00 0.00 0.00 0.00 0.00 0.00 0.00 0.00 0.00 0.00 0.00 0.00 0.00 0.00 0.00 0.00 0.00 0.00 0.00 0.00 0.00 0.00 0.00 0.00 0.00 0.00 0.00 0.00 0.00 0.00 0.00 0.00
0.00 0.00 0.00 0.00 0.00 0.00 0.00 0.00 0.00 0.00 0.00 0.00 0.00 0.00 0.00 0.00 0.00 0.00 0.00 0.00 0.00 0.00 0.00 0.00 0.00 0.00 0.00 0.00 0.00 0.00 0.00 0.00 0.00 0.00 0.00 0.00 0.00 0.00 0.00 0.00 0.00 0.00 0.00
0.00 0.00 0.00 0.00 0.00 0.00 0.00 0.00 0.00 0.00 0.00 0.00 0.00 0.00 0.00 0.00 0.00 0.00 0.00 0.00 0.00 0.00 0.00 0.00 0.00 0.00 0.00 0.00 0.00 0.00 0.00 0.00 0.00 0.00 0.00 0.00 0.00 0.00 0.00 0.00 0.00 0.00 0.00
0.00 0.00 0.00 0.00 0.00 0.00 0.00 0.00 0.00 0.00 0.00 0.00 0.00 0.00 0.00 0.00 0.00 0.00 0.00 0.00 0.00 0.00 0.00 0.00 0.00 0.00 0.00 0.00 0.00 0.00 0.00 0.00 0.00 0.00 0.00 0.00 0.00 0.00 0.00 0.00 0.00 0.00 0.00
0.00 0.00 0.00 0.00 0.00 0.00 0.00 0.00 0.00 0.00 0.00 0.00 0.00 0.00 0.00 0.00 0.00 0.00 0.00 0.00 0.00 0.00 0.00 0.00 0.00 0.00 0.00 0.00 0.00 0.00 0.00 0.00 0.00 0.00 0.00 0.00 0.00 0.00 0.00 0.00 0.00 0.00 0.00
0.00 0.00 0.00 0.00 0.00 0.00 0.00 0.00 0.00 0.00 0.00 0.00 0.00 0.00 0.00 0.00 0.00 0.00 0.00 0.00 0.00 0.00 0.00 0.00 0.00 0.00 0.00 0.00 0.00 0.00 0.00 0.00 0.00 0.00 0.00 0.00 0.00 0.00 0.00 0.00 0.01 0.01 0.01
0.00 0.00 0.00 0.00 0.00 0.00 0.00 0.00 0.00 0.00 0.00 0.00 0.00 0.00 0.00 0.00 0.00 0.00 0.00 0.00 0.00 0.00 0.00 0.00 0.00 0.00 0.00 0.00 0.00 0.00 0.00 0.00 0.00 0.00 0.00 0.00 0.00 0.00 0.01 0.01 0.01 0.01 0.01
0.00 0.00 0.00 0.00 0.00 0.00 0.00 0.00 0.00 0.00 0.00 0.00 0.00 0.00 0.00 0.00 0.00 0.00 0.00 0.00 0.00 0.00 0.00 0.00 0.00 0.00 0.00 0.00 0.00 0.00 0.00 0.00 0.00 0.00 0.00 0.00 0.00 0.01 0.01 0.02 0.02 0.03 0.03
0.00 0.00 0.00 0.00 0.00 0.00 0.00 0.00 0.00 0.00 0.00 0.00 0.00 0.00 0.00 0.00 0.00 0.00 0.00 0.00 0.00 0.00 0.00 0.00 0.00 0.00 0.00 0.00 0.00 0.00 0.00 0.00 0.00 0.00 0.00 0.01 0.01 0.02 0.02 0.03 0.04 0.04 0.04
0.00 0.00 0.00 0.00 0.00 0.00 0.00 0.00 0.00 0.00 0.00 0.00 0.00 0.00 0.00 0.00 0.00 0.00 0.00 0.00 0.00 0.00 0.00 0.00 0.00 0.00 0.00 0.00 0.00 0.00 0.00 0.00 0.00 0.00 0.01 0.01 0.02 0.03 0.04 0.04 0.05 0.05 0.05
0.00 0.00 0.00 0.00 0.00 0.00 0.00 0.00 0.00 0.00 0.00 0.00 0.00 0.00 0.00 0.00 0.00 0.00 0.00 0.00 0.00 0.00 0.00 0.00 0.00 0.00 0.00 0.00 0.00 0.00 0.00 0.00 0.00 0.00 0.01 0.02 0.02 0.02 0.03 0.03 0.04 0.05 0.06
0.00 0.00 0.00 0.00 0.00 0.00 0.00 0.00 0.00 0.00 0.00 0.00 0.00 0.00 0.00 0.00 0.00 0.00 0.00 0.00 0.00 0.00 0.00 0.00 0.00 0.00 0.00 0.00 0.00 0.00 0.00 0.00 0.00 0.00 0.01 0.01 0.01 0.02 0.02 0.03 0.04 0.04 0.05
0.00 0.00 0.00 0.00 0.00 0.00 0.00 0.00 0.00 0.00 0.00 0.00 0.00 0.00 0.00 0.00 0.00 0.00 0.00 0.00 0.00 0.00 0.00 0.00 0.00 0.00 0.00 0.00 0.00 0.00 0.00 0.00 0.00 0.00 0.01 0.01 0.01 0.01 0.02 0.02 0.02 0.03 0.03
0.00 0.00 0.00 0.00 0.00 0.00 0.00 0.00 0.00 0.00 0.00 0.00 0.00 0.00 0.00 0.00 0.00 0.00 0.00 0.00 0.00 0.00 0.00 0.00 0.00 0.00 0.00 0.00 0.00 0.00 0.00 0.00 0.00 0.00 0.01 0.01 0.01 0.01 0.01 0.01 0.02 0.02 0.03
0.00 0.00 0.00 0.00 0.00 0.00 0.00 0.00 0.00 0.00 0.00 0.00 0.00 0.00 0.00 0.00 0.00 0.00 0.00 0.00 0.00 0.00 0.00 0.00 0.00 0.00 0.00 0.00 0.00 0.00 0.00 0.00 0.00 0.01 0.01 0.01 0.01 0.01 0.02 0.02 0.03 0.03 0.04
0.00 0.00 0.00 0.00 0.00 0.00 0.00 0.00 0.00 0.00 0.00 0.00 0.00 0.00 0.00 0.00 0.00 0.00 0.00 0.00 0.00 0.00 0.00 0.00 0.00 0.00 0.00 0.00 0.00 0.00 0.00 0.00 0.00 0.00 0.00 0.00 0.01 0.01 0.02 0.02 0.03 0.04 0.05
0.00 0.00 0.00 0.00 0.00 0.00 0.00 0.00 0.00 0.00 0.00 0.00 0.00 0.00 0.00 0.00 0.00 0.00 0.00 0.00 0.00 0.00 0.00 0.00 0.00 0.00 0.00 0.00 0.00 0.00 0.00 0.00 0.00 0.00 0.00 0.00 0.00 0.01 0.02 0.02 0.03 0.03 0.03
0.00 0.00 0.00 0.00 0.00 0.00 0.00 0.00 0.00 0.00 0.00 0.00 0.00 0.00 0.00 0.00 0.00 0.00 0.00 0.00 0.00 0.00 0.00 0.01 0.02 0.02 0.01 0.00 0.00 0.00 0.00 0.00 0.00 0.00 0.00 0.00 0.00 0.00 0.01 0.01 0.01 0.01 0.01
0.00 0.00 0.00 0.00 0.00 0.00 0.00 0.00 0.00 0.00 0.00 0.00 0.00 0.00 0.00 0.00 0.00 0.00 0.00 0.00 0.01 0.01 0.03 0.04 0.03 0.01 0.00 0.00 0.00 0.00 0.00 0.00 0.00 0.00 0.00 0.00 0.00 0.00 0.00 0.00 0.00 0.00 0.00
0.00 0.00 0.00 0.00 0.00 0.00 0.00 0.00 0.00 0.00 0.00 0.00 0.00 0.00 0.00 0.00 0.00 0.00 0.00 0.01 0.02 0.05 0.05 0.03 0.01 0.00 0.00 0.00 0.00 0.01 0.01 0.02 0.01 0.00 0.00 0.00 0.00 0.00 0.00 0.00 0.00 0.00 0.00
0.00 0.00 0.00 0.00 0.00 0.00 0.00 0.00 0.00 0.00 0.00 0.00 0.00 0.00 0.00 0.00 0.00 0.00 0.00 0.01 0.03 0.03 0.02 0.01 0.00 0.00 0.00 0.01 0.02 0.03 0.02 0.02 0.01 0.00 0.00 0.00 0.00 0.00 0.00 0.00 0.00 0.00 0.00
0.00 0.00 0.00 0.00 0.00 0.00 0.00 0.00 0.00 0.00 0.00 0.00 0.00 0.00 0.00 0.00 0.00 0.01 0.02 0.03 0.02 0.01 0.00 0.00 0.00 0.00 0.01 0.01 0.02 0.02 0.02 0.02 0.01 0.00 0.00 0.00 0.00 0.00 0.00 0.00 0.00 0.00 0.00
0.00 0.00 0.00 0.00 0.00 0.00 0.00 0.00 0.00 0.00 0.00 0.00 0.00 0.00 0.00 0.00 0.01 0.02 0.03 0.02 0.01 0.00 0.00 0.00 0.01 0.01 0.00 0.00 0.00 0.01 0.02 0.03 0.01 0.00 0.00 0.00 0.00 0.00 0.00 0.00 0.00 0.00 0.00
0.00 0.00 0.00 0.00 0.00 0.00 0.00 0.00 0.00 0.00 0.00 0.00 0.00 0.00 0.00 0.00 0.01 0.02 0.02 0.01 0.00 0.00 0.01 0.01 0.00 0.00 0.00 0.00 0.00 0.00 0.03 0.07 0.04 0.02 0.00 0.01 0.01 0.02 0.03 0.00 0.00 0.00 0.00
MSLP
1015.54 1015.88 1016.19 1016.47 1016.72 1016.92 1017.07 1017.16 1017.18 1017.12 1016.98 1016.79 1016.56 1016.34 1016.16 1016.04 1015.98 1016.00 1016.05 1016.12 1016.15 1016.13 1016.03 1015.86 1015.61 1015.33 1015.03 1014.75 1014.51 1014.32 1014.15 1014.01 1013.87 1013.71 1013.52 1013.32 1013.10 1012.87 1012.68 1012.51 1012.37 1012.27 1012.18
1015.54 1015.90 1016.24 1016.54 1016.80 1017.02 1017.19 1017.30 1017.33 1017.27 1017.14 1016.95 1016.72 1016.51 1016.33 1016.22 1016.19 1016.24 1016.34 1016.45 1016.54 1016.57 1016.51 1016.37 1016.14 1015.86 1015.56 1015.26 1015.00 1014.76 1014.57 1014.39 1014.21 1014.01 1013.79 1013.55 1013.29 1013.04 1012.81 1012.61 1012.44 1012.31 1012.20
1015.60 1015.98 1016.33 1016.63 1016.91 1017.14 1017.31 1017.43 1017.46 1017.41 1017.29 1017.10 1016.88 1016.67 1016.50 1016.40 1016.38 1016.45 1016.57 1016.71 1016.83 1016.89 1016.88 1016.77 1016.57 1016.31 1016.01 1015.71 1015.42 1015.15 1014.91 1014.69 1014.47 1014.23 1013.97 1013.70 1013.41 1013.14 1012.88 1012.67 1012.49 1012.35 1012.23
1015.74 1016.13 1016.48 1016.79 1017.06 1017.28 1017.46 1017.57 1017.61 1017.57 1017.45 1017.27 1017.06 1016.85 1016.68 1016.57 1016.54 1016.60 1016.71 1016.86 1016.99 1017.08 1017.09 1017.01 1016.84 1016.60 1016.32 1016.02 1015.71 1015.42 1015.15 1014.88 1014.61 1014.32 1014.02 1013.71 1013.40 1013.11 1012.84 1012.62 1012.44 1012.30 1012.19
1015.94 1016.35 1016.71 1017.01 1017.27 1017.48 1017.64 1017.74 1017.78 1017.74 1017.63 1017.46 1017.25 1017.04 1016.86 1016.73 1016.68 1016.70 1016.79 1016.91 1017.02 1017.11 1017.13 1017.07 1016.94 1016.73 1016.47 1016.18 1015.87 1015.56 1015.24 1014.93 1014.61 1014.28 1013.93 1013.59 1013.25 1012.94 1012.66 1012.44 1012.26 1012.13 1012.03
1016.19 1016.61 1016.97 1017.27 1017.52 1017.71 1017.86 1017.95 1017.98 1017.95 1017.84 1017.68 1017.48 1017.27 1017.07 1016.91 1016.81 1016.78 1016.81 1016.87 1016.95 1017.01 1017.03 1016.99 1016.87 1016.70 1016.46 1016.19 1015.89 1015.57 1015.23 1014.87 1014.51 1014.12 1013.73 1013.34 1012.97 1012.64 1012.35 1012.12 1011.95 1011.82 1011.72
1016.44 1016.88 1017.25 1017.55 1017.79 1017.97 1018.11 1018.19 1018.22 1018.18 1018.09 1017.94 1017.75 1017.54 1017.32 1017.12 1016.97 1016.86 1016.81 1016.80 1016.81 1016.83 1016.82 1016.78 1016.69 1016.54 1016.35 1016.10 1015.81 1015.49 1015.14 1014.75 1014.34 1013.91 1013.47 1013.03 1012.63 1012.26 1011.95 1011.70 1011.51 1011.38 1011.28
1016.65 1017.12 1017.50 1017.80 1018.04 1018.22 1018.35 1018.43 1018.46 1018.44 1018.36 1018.23 1018.06 1017.85 1017.61 1017.38 1017.16 1016.98 1016.83 1016.73 1016.66 1016.62 1016.57 1016.52 1016.44 1016.32 1016.16 1015.95 1015.68 1015.37 1015.01 1014.60 1014.15 1013.68 1013.20 1012.72 1012.26 1011.86 1011.51 1011.23 1011.01 1010.85 1010.72
1016.78 1017.28 1017.68 1017.99 1018.24 1018.42 1018.55 1018.64 1018.69 1018.69 1018.65 1018.55 1018.40 1018.20 1017.96 1017.69 1017.41 1017.15 1016.91 1016.71 1016.55 1016.43 1016.33 1016.25 1016.17 1016.07 1015.94 1015.77 1015.53 1015.24 1014.88 1014.47 1014.00 1013.49 1012.96 1012.44 1011.94 1011.48 1011.09 1010.75 1010.49 1010.28 1010.11
1016.83 1017.35 1017.77 1018.11 1018.37 1018.56 1018.71 1018.82 1018.89 1018.93 1018.93 1018.87 1018.76 1018.58 1018.34 1018.04 1017.71 1017.37 1017.04 1016.74 1016.49 1016.28 1016.13 1016.01 1015.92 1015.83 1015.72 1015.58 1015.37 1015.10 1014.76 1014.34 1013.86 1013.33 1012.78 1012.22 1011.67 1011.17 1010.72 1010.33 1010.00 1009.73 1009.51
1016.79 1017.34 1017.79 1018.15 1018.43 1018.64 1018.81 1018.94 1019.05 1019.13 1019.18 1019.17 1019.10 1018.95 1018.72 1018.42 1018.06 1017.65 1017.24 1016.84 1016.49 1016.20 1015.97 1015.80 1015.68 1015.59 1015.49 1015.36 1015.18 1014.94 1014.61 1014.20 1013.72 1013.19 1012.61 1012.03 1011.45 1010.91 1010.40 1009.95 1009.56 1009.23 1008.94
1016.71 1017.28 1017.75 1018.13 1018.43 1018.67 1018.86 1019.02 1019.16 1019.28 1019.38 1019.42 1019.40 1019.29 1019.09 1018.78 1018.39 1017.94 1017.46 1016.98 1016.54 1016.15 1015.85 1015.62 1015.45 1015.33 1015.22 1015.10 1014.93 1014.70 1014.39 1013.99 1013.52 1012.99 1012.41 1011.82 1011.22 1010.65 1010.11 1009.61 1009.16 1008.77 1008.41
1016.62 1017.21 1017.70 1018.10 1018.41 1018.66 1018.87 1019.05 1019.22 1019.37 1019.51 1019.60 1019.62 1019.55 1019.37 1019.08 1018.68 1018.20 1017.67 1017.12 1016.60 1016.13 1015.75 1015.44 1015.22 1015.05 1014.91 1014.76 1014.59 1014.35 1014.05 1013.66 1013.20 1012.68 1012.11 1011.52 1010.92 1010.33 1009.77 1009.24 1008.76 1008.31 1007.91
1016.58 1017.18 1017.68 1018.09 1018.41 1018.66 1018.86 1019.05 1019.22 1019.39 1019.55 1019.67 1019.72 1019.69 1019.55 1019.28 1018.89 1018.39 1017.82 1017.23 1016.64 1016.10 1015.64 1015.25 1014.95 1014.72 1014.52 1014.34 1014.13 1013.87 1013.56 1013.17 1012.71 1012.20 1011.64 1011.06 1010.47 1009.89 1009.32 1008.78 1008.28 1007.81 1007.37
1016.60 1017.22 1017.73 1018.13 1018.44 1018.67 1018.86 1019.02 1019.18 1019.34 1019.49 1019.62 1019.70 1019.69 1019.58 1019.33 1018.96 1018.47 1017.89 1017.27 1016.64 1016.04 1015.51 1015.05 1014.67 1014.35 1014.08 1013.83 1013.56 1013.27 1012.92 1012.51 1012.05 1011.54 1010.99 1010.41 1009.83 1009.26 1008.70 1008.17 1007.66 1007.19 1006.74
1016.73 1017.35 1017.86 1018.24 1018.53 1018.72 1018.87 1018.98 1019.09 1019.21 1019.34 1019.46 1019.53 1019.54 1019.45 1019.24 1018.90 1018.43 1017.87 1017.24 1016.59 1015.95 1015.36 1014.83 1014.36 1013.96 1013.61 1013.27 1012.93 1012.57 1012.17 1011.72 1011.23 1010.70 1010.14 1009.57 1008.99 1008.43 1007.88 1007.35 1006.86 1006.39 1005.95
1016.95 1017.57 1018.06 1018.42 1018.66 1018.81 1018.88 1018.93 1018.97 1019.03 1019.11 1019.19 1019.25 1019.26 1019.19 1019.01 1018.70 1018.28 1017.75 1017.14 1016.49 1015.83 1015.19 1014.60 1014.07 1013.58 1013.14 1012.71 1012.28 1011.84 1011.37 1010.86 1010.32 1009.75 1009.16 1008.56 1007.97 1007.40 1006.85 1006.33 1005.84 1005.38 1004.95
1017.25 1017.86 1018.33 1018.65 1018.83 1018.91 1018.91 1018.88 1018.83 1018.81 1018.82 1018.85 1018.88 1018.89 1018.83 1018.67 1018.41 1018.03 1017.54 1016.97 1016.34 1015.68 1015.03 1014.39 1013.80 1013.24 1012.71 1012.19 1011.67 1011.14 1010.59 1010.01 1009.39 1008.76 1008.12 1007.48 1006.85 1006.24 1005.67 1005.13 1004.64 1004.18 1003.76
1017.59 1018.18 1018.61 1018.89 1019.02 1019.03 1018.95 1018.83 1018.69 1018.59 1018.52 1018.49 1018.49 1018.47 1018.41 1018.28 1018.06 1017.72 1017.28 1016.75 1016.15 1015.51 1014.85 1014.19 1013.55 1012.93 1012.33 1011.74 1011.15 1010.53 1009.90 1009.23 1008.54 1007.83 1007.11 1006.40 1005.71 1005.04 1004.41 1003.84 1003.31 1002.84 1002.41
1017.95 1018.49 1018.89 1019.11 1019.19 1019.13 1018.98 1018.78 1018.57 1018.38 1018.24 1018.15 1018.10 1018.06 1018.00 1017.88 1017.68 1017.38 1016.98 1016.49 1015.92 1015.30 1014.64 1013.98 1013.31 1012.66 1012.01 1011.37 1010.71 1010.03 1009.32 1008.58 1007.81 1007.02 1006.22 1005.41 1004.63 1003.88 1003.17 1002.52 1001.94 1001.42 1000.96
1018.27 1018.77 1019.11 1019.29 1019.31 1019.20 1018.99 1018.73 1018.46 1018.21 1018.01 1017.87 1017.77 1017.70 1017.61 1017.49 1017.30 1017.02 1016.64 1016.18 1015.63 1015.03 1014.39 1013.72 1013.05 1012.39 1011.72 1011.04 1010.35 1009.63 1008.87 1008.07 1007.23 1006.36 1005.47 1004.58 1003.69 1002.83 1002.03 1001.28 1000.61 1000.02 999.51
1018.54 1018.99 1019.28 1019.41 1019.39 1019.24 1018.99 1018.69 1018.37 1018.08 1017.83 1017.64 1017.50 1017.38 1017.27 1017.12 1016.92 1016.63 1016.26 1015.80 1015.27 1014.67 1014.04 1013.39 1012.72 1012.06 1011.39 1010.72 1010.02 1009.28 1008.51 1007.68 1006.79 1005.86 1004.90 1003.91 1002.92 1001.96 1001.04 1000.18 999.40 998.71 998.12
1018.75 1019.13 1019.37 1019.45 1019.40 1019.22 1018.95 1018.63 1018.29 1017.97 1017.70 1017.47 1017.28 1017.12 1016.96 1016.77 1016.53 1016.21 1015.81 1015.34 1014.80 1014.21 1013.58 1012.94 1012.29 1011.65 1011.00 1010.35 1009.67 1008.95 1008.18 1007.35 1006.45 1005.48 1004.46 1003.40 1002.32 1001.26 1000.22 999.25 998.36 997.56 996.86
1018.90 1019.20 1019.38 1019.43 1019.35 1019.16 1018.88 1018.56 1018.21 1017.88 1017.58 1017.31 1017.08 1016.87 1016.65 1016.40 1016.11 1015.74 1015.30 1014.79 1014.23 1013.63 1013.00 1012.37 1011.75 1011.13 1010.52 1009.91 1009.27 1008.58 1007.84 1007.03 1006.13 1005.15 1004.10 1002.99 1001.85 1000.70 999.58 998.50 997.49 996.57 995.75
1019.00 1019.23 1019.35 1019.35 1019.25 1019.05 1018.77 1018.45 1018.11 1017.77 1017.45 1017.16 1016.88 1016.61 1016.33 1016.01 1015.64 1015.21 1014.72 1014.17 1013.58 1012.96 1012.33 1011.71 1011.11 1010.52 1009.95 1009.38 1008.78 1008.14 1007.44 1006.66 1005.78 1004.81 1003.75 1002.62 1001.45 1000.24 999.05 997.88 996.78 995.75 994.81
1019.07 1019.22 1019.28 1019.24 1019.11 1018.90 1018.63 1018.31 1017.97 1017.63 1017.29 1016.96 1016.64 1016.31 1015.96 1015.58 1015.14 1014.65 1014.11 1013.52 1012.90 1012.26 1011.63 1011.02 1010.43 1009.87 1009.33 1008.79 1008.23 1007.63 1006.96 1006.21 1005.36 1004.41 1003.36 1002.23 1001.04 999.81 998.57 997.35 996.17 995.05 994.00
Thickness
5673 5670 5665 5661 5659 5657 5656 5654 5654 5652 5651 5650 5649 5648 5649 5649 5647 5644 5639 5637 5637 5636 5635 5634 5633 5633 5633 5634 5635 5635 5635 5636 5636 5637 5638 5638 5639 5640 5641 5642 5643 5644 5645
5667 5662 5657 5653 5651 5648 5647 5646 5645 5644 5643 5642 5642 5640 5640 5640 5638 5635 5632 5628 5625 5623 5621 5620 5619 5619 5620 5621 5622 5623 5623 5623 5624 5624 5625 5626 5627 5627 5628 5629 5630 5631 5632
5659 5653 5649 5646 5643 5640 5638 5637 5636 5635 5634 5635 5635 5632 5632 5630 5627 5624 5622 5619 5616 5612 5610 5608 5608 5608 5608 5609 5610 5611 5611 5611 5611 5611 5612 5613 5614 5614 5615 5615 5616 5618 5619
5651 5646 5641 5638 5635 5632 5630 5628 5627 5627 5627 5627 5627 5625 5623 5620 5618 5615 5612 5609 5606 5604 5601 5598 5598 5598 5597 5598 5599 5599 5599 5599 5599 5599 5599 5600 5601 5602 5602 5602 5603 5604 5605
5644 5639 5634 5630 5627 5625 5623 5620 5618 5618 5618 5617 5618 5616 5614 5612 5608 5605 5602 5599 5596 5593 5592 5590 5589 5588 5586 5586 5586 5587 5586 5586 5586 5586 5586 5587 5589 5590 5590 5590 5590 5590 5591
5636 5632 5627 5624 5620 5618 5615 5613 5609 5607 5606 5605 5607 5607 5605 5602 5599 5597 5593 5590 5586 5584 5582 5580 5580 5579 5577 5575 5574 5573 5572 5572 5572 5572 5572 5573 5575 5576 5576 5576 5576 5576 5576
5629 5625 5621 5616 5613 5610 5608 5606 5603 5600 5596 5594 5598 5600 5598 5594 5592 5588 5584 5582 5579 5574 5572 5570 5568 5567 5566 5564 5562 5559 5558 5558 5558 5558 5558 5559 5561 5562 5562 5563 5563 5563 5563
5621 5618 5615 5609 5605 5601 5599 5596 5594 5592 5586 5583 5584 5587 5589 5589 5583 5579 5575 5572 5569 5565 5561 5558 5555 5553 5552 5550 5549 5545 5543 5542 5542 5543 5543 5544 5546 5547 5547 5547 5547 5548 5548
5612 5610 5606 5601 5597 5594 5590 5587 5584 5581 5579 5573 5570 5571 5574 5576 5571 5571 5566 5561 5557 5552 5548 5544 5541 5538 5536 5534 5532 5530 5526 5524 5524 5526 5527 5528 5529 5529 5529 5529 5529 5530 5530
5604 5601 5597 5592 5588 5584 5580 5576 5572 5568 5565 5564 5559 5554 5553 5551 5553 5561 5561 5555 5548 5540 5535 5531 5527 5525 5521 5518 5515 5512 5508 5505 5505 5506 5508 5509 5510 5509 5509 5509 5509 5508 5508
5595 5591 5587 5583 5579 5575 5570 5565 5560 5557 5553 5550 5547 5544 5542 5538 5537 5537 5546 5545 5540 5534 5528 5522 5517 5513 5508 5503 5500 5496 5491 5487 5487 5488 5488 5488 5488 5488 5488 5486 5485 5485 5484
5586 5581 5577 5572 5568 5564 5559 5554 5550 5546 5541 5537 5533 5530 5528 5527 5526 5523 5525 5528 5526 5523 5517 5511 5505 5499 5492 5487 5484 5479 5474 5471 5470 5470 5468 5467 5466 5465 5463 5460 5458 5456 5454
5579 5572 5567 5562 5557 5553 5548 5544 5540 5535 5530 5526 5523 5520 5516 5512 5508 5505 5504 5507 5507 5507 5505 5499 5492 5484 5476 5470 5466 5460 5456 5454 5452 5449 5446 5443 5439 5435 5431 5427 5424 5421 5419
5573 5564 5558 5551 5546 5542 5538 5534 5530 5524 5519 5515 5512 5507 5503 5499 5494 5490 5486 5485 5489 5494 5490 5485 5475 5464 5455 5448 5443 5437 5435 5431 5427 5422 5416 5411 5404 5398 5391 5385 5381 5377 5375
5563 5555 5547 5541 5536 5532 5529 5525 5521 5515 5509 5505 5501 5496 5490 5485 5479 5474 5470 5466 5464 5470 5476 5467 5456 5445 5433 5426 5419 5412 5408 5403 5396 5387 5379 5372 5365 5357 5350 5345 5341 5338 5335
5554 5546 5538 5532 5527 5523 5520 5515 5510 5504 5500 5495 5488 5482 5477 5471 5466 5461 5456 5451 5445 5443 5448 5449 5436 5425 5414 5404 5395 5386 5380 5373 5364 5353 5343 5336 5331 5326 5323 5320 5317 5315 5313
5544 5536 5529 5523 5519 5515 5510 5505 5501 5495 5490 5484 5476 5469 5463 5456 5451 5446 5440 5434 5429 5424 5426 5430 5417 5406 5395 5384 5375 5362 5350 5340 5332 5323 5317 5314 5312 5310 5308 5307 5306 5304 5303
5533 5526 5520 5514 5509 5504 5499 5495 5491 5485 5479 5471 5464 5456 5449 5442 5436 5430 5424 5418 5412 5406 5402 5404 5399 5387 5375 5361 5349 5336 5323 5313 5308 5306 5303 5303 5303 5302 5302 5301 5300 5299 5298
5521 5515 5510 5505 5499 5493 5488 5484 5480 5474 5467 5459 5450 5443 5436 5428 5421 5415 5408 5402 5396 5388 5380 5376 5375 5366 5353 5336 5324 5315 5304 5299 5296 5295 5295 5297 5297 5297 5297 5297 5297 5297 5296
5510 5504 5499 5493 5487 5482 5477 5472 5468 5462 5455 5446 5437 5429 5421 5414 5406 5399 5393 5386 5377 5368 5359 5352 5347 5338 5325 5312 5301 5298 5296 5290 5288 5288 5289 5292 5294 5294 5294 5294 5293 5293 5291
5498 5493 5487 5481 5476 5471 5466 5460 5456 5450 5442 5434 5426 5417 5409 5400 5391 5383 5375 5366 5355 5345 5335 5325 5318 5309 5301 5294 5288 5284 5283 5283 5284 5282 5288 5292 5291 5293 5293 5293 5292 5290 5287
5487 5481 5475 5470 5465 5459 5451 5446 5441 5436 5430 5422 5413 5406 5398 5389 5380 5370 5359 5346 5332 5320 5309 5298 5292 5285 5283 5279 5276 5273 5272 5275 5282 5281 5283 5289 5286 5290 5292 5293 5292 5289 5285
5476 5470 5465 5459 5454 5447 5439 5434 5428 5422 5416 5408 5400 5392 5385 5376 5364 5353 5342 5329 5314 5298 5284 5275 5272 5270 5269 5267 5265 5266 5267 5269 5273 5274 5275 5287 5288 5290 5291 5292 5291 5288 5284
5466 5460 5454 5448 5442 5436 5427 5421 5416 5412 5405 5396 5387 5379 5370 5360 5347 5334 5325 5312 5298 5284 5273 5265 5261 5260 5259 5258 5258 5259 5260 5264 5270 5271 5271 5279 5285 5287 5290 5291 5291 5289 5287
5455 5449 5442 5437 5432 5425 5416 5410 5405 5401 5394 5386 5376 5366 5354 5342 5329 5316 5305 5295 5285 5275 5266 5259 5256 5256 5256 5254 5253 5253 5255 5258 5266 5272 5269 5272 5278 5281 5285 5291 5294 5294 5292
5443 5438 5432 5427 5420 5414 5407 5399 5392 5389 5384 5375 5364 5352 5339 5325 5310 5296 5286 5279 5274 5267 5261 5258 5257 5256 5254 5253 5251 5249 5248 5249 5255 5263 5269 5267 5268 5269 5280 5293 5294 5294 5295